TimeMDT,TemperatureF,Dew PointF,Humidity,Sea Level PressureIn,VisibilityMPH,Wind Direction,Wind SpeedMPH,Gust SpeedMPH,PrecipitationIn,Events,Conditions,WindDirDegrees,DateUTC
1:53 AM,63.0,57.9,84,30.13,10.0,NNE,4.6,-,N/A,,Clear,30,2013-07-31 07:53:00
2:53 AM,61.0,57.9,90,30.14,10.0,NE,4.6,-,N/A,,Scattered Clouds,40,2013-07-31 08:53:00
3:53 AM,60.1,57.9,93,30.13,10.0,NW,4.6,-,N/A,,Clear,310,2013-07-31 09:53:00
4:53 AM,57.9,55.9,93,30.15,10.0,NW,4.6,-,N/A,,Clear,320,2013-07-31 10:53:00
5:53 AM,55.9,55.0,97,30.16,9.0,NNW,3.5,-,N/A,,Clear,330,2013-07-31 11:53:00
6:53 AM,59.0,57.0,93,30.17,10.0,NW,4.6,-,N/A,,Clear,320,2013-07-31 12:53:00
7:50 AM,64.4,59.0,83,30.30,10.0,Calm,Calm,-,N/A,,Mostly Cloudy,0,2013-07-31 13:50:00
7:53 AM,64.0,59.0,84,30.19,10.0,Calm,Calm,-,N/A,,Mostly Cloudy,0,2013-07-31 13:53:00
8:41 AM,64.4,59.0,83,30.31,10.0,Calm,Calm,-,N/A,,Scattered Clouds,0,2013-07-31 14:41:00
8:48 AM,64.4,59.0,83,30.31,10.0,Calm,Calm,-,N/A,,Mostly Cloudy,0,2013-07-31 14:48:00
8:53 AM,66.0,59.0,78,30.19,10.0,West,4.6,-,N/A,,Mostly Cloudy,280,2013-07-31 14:53:00
9:19 AM,66.2,59.0,78,30.30,10.0,WSW,3.5,-,N/A,,Scattered Clouds,250,2013-07-31 15:19:00
9:53 AM,70.0,59.0,68,30.18,10.0,Calm,Calm,-,N/A,,Partly Cloudy,0,2013-07-31 15:53:00
10:53 AM,73.9,60.1,62,30.17,10.0,NNW,4.6,-,N/A,,Clear,330,2013-07-31 16:53:00
11:53 AM,78.1,60.1,54,30.14,10.0,Calm,Calm,-,N/A,,Clear,0,2013-07-31 17:53:00
12:53 PM,82.0,55.9,41,30.12,10.0,Calm,Calm,-,N/A,,Clear,0,2013-07-31 18:53:00
1:53 PM,84.9,54.0,34,30.10,10.0,Calm,Calm,-,N/A,,Clear,0,2013-07-31 19:53:00
2:53 PM,87.1,46.0,24,30.06,10.0,Variable,4.6,-,N/A,,Clear,0,2013-07-31 20:53:00
3:53 PM,89.1,45.0,22,30.04,10.0,SE,4.6,-,N/A,,Clear,130,2013-07-31 21:53:00
4:53 PM,86.0,46.9,26,30.03,10.0,ESE,5.8,-,N/A,,Clear,110,2013-07-31 22:53:00
5:36 PM,82.4,55.4,39,30.16,10.0,ESE,4.6,-,N/A,Thunderstorm,Clear,110,2013-07-31 23:36:00
5:53 PM,80.1,54.0,40,30.09,10.0,WNW,19.6,27.6,0.00,Rain-Thunderstorm,Light Rain,300,2013-07-31 23:53:00
6:12 PM,71.6,57.2,60,30.18,4.0,NNE,5.8,28.8,0.02,Rain-Thunderstorm,Thunderstorms and Rain,20,2013-08-01 00:12:00
6:42 PM,73.4,62.6,69,30.17,10.0,Calm,Calm,-,0.04,,Partly Cloudy,0,2013-08-01 00:42:00
6:53 PM,72.0,64.9,78,30.06,10.0,Calm,Calm,-,0.04,,Clear,0,2013-08-01 00:53:00
7:53 PM,71.1,64.0,78,30.06,10.0,NNE,3.5,-,N/A,,Clear,20,2013-08-01 01:53:00
8:53 PM,71.1,61.0,70,30.11,10.0,NE,6.9,-,N/A,,Clear,40,2013-08-01 02:53:00
9:53 PM,69.1,59.0,70,30.08,10.0,East,8.1,-,N/A,,Clear,80,2013-08-01 03:53:00
10:53 PM,68.0,60.1,76,30.05,10.0,South,8.1,-,N/A,,Clear,170,2013-08-01 04:53:00
11:53 PM,64.0,61.0,90,30.06,10.0,ENE,5.8,-,N/A,,Partly Cloudy,60,2013-08-01 05:53:00